Time,TemperatureF,DewpointF,PressureIn,WindDirection,WindDirectionDegrees,WindSpeedMPH,WindSpeedGustMPH,Humidity,HourlyPrecipIn,Conditions,Clouds,dailyrainin,SolarRadiationWatts/m^2,SoftwareType,DateUTC
2013-04-19 08:24:00,58.8,47.1,29.71,South,190,6.0,6.0,65,0.00,,,0.00,127,Wunderground v.1.15,2013-04-18 22:24:00,
2013-04-19 08:29:00,59.4,47.2,29.71,SW,216,6.0,6.0,64,0.00,,,0.00,185,Wunderground v.1.15,2013-04-18 22:29:00,
2013-04-19 08:39:00,59.0,46.8,29.71,SW,232,5.0,8.0,64,0.00,,,0.00,193,Wunderground v.1.15,2013-04-18 22:39:00,
2013-04-19 08:44:00,59.1,46.5,29.71,SSW,211,5.0,7.0,63,0.00,,,0.00,448,Wunderground v.1.15,2013-04-18 22:44:00,
2013-04-19 08:49:00,59.8,46.7,29.71,SW,236,6.0,7.0,62,0.00,,,0.00,492,Wunderground v.1.15,2013-04-18 22:49:00,
2013-04-19 08:59:00,60.8,46.4,29.71,WSW,256,7.0,8.0,59,0.00,,,0.00,608,Wunderground v.1.15,2013-04-18 22:59:00,
2013-04-19 09:04:00,60.3,45.9,29.71,WSW,253,7.0,7.0,59,0.00,,,0.00,232,Wunderground v.1.15,2013-04-18 23:04:00,
2013-04-19 09:09:00,60.1,47.0,29.71,West,269,6.0,9.0,62,0.00,,,0.00,239,Wunderground v.1.15,2013-04-18 23:09:00,
2013-04-19 09:14:00,60.0,46.5,29.71,WSW,243,6.0,8.0,61,0.00,,,0.00,515,Wunderground v.1.15,2013-04-18 23:14:00,
2013-04-19 09:19:00,60.2,46.7,29.71,WSW,250,7.0,8.0,61,0.00,,,0.00,527,Wunderground v.1.15,2013-04-18 23:19:00,
2013-04-19 09:29:00,61.0,47.4,29.71,SW,225,5.0,11.0,61,0.00,,,0.00,548,Wunderground v.1.15,2013-04-18 23:29:00,
2013-04-19 09:39:00,61.3,46.8,29.72,West,259,7.0,8.0,59,0.00,,,0.00,575,Wunderground v.1.15,2013-04-18 23:39:00,
2013-04-19 09:44:00,61.7,46.8,29.72,SSE,150,6.0,6.0,58,0.00,,,0.00,584,Wunderground v.1.15,2013-04-18 23:44:00,
2013-04-19 09:49:00,61.4,46.0,29.72,WSW,240,6.0,6.0,57,0.00,,,0.00,596,Wunderground v.1.15,2013-04-18 23:49:00,
2013-04-19 09:54:00,61.6,46.7,29.71,WSW,248,6.0,6.0,58,0.00,,,0.00,605,Wunderground v.1.15,2013-04-18 23:54:00,
2013-04-19 09:59:00,61.8,46.4,29.72,SW,220,6.0,8.0,57,0.00,,,0.00,617,Wunderground v.1.15,2013-04-18 23:59:00,
2013-04-19 10:09:00,62.3,46.9,29.72,West,260,6.0,7.0,57,0.00,,,0.00,652,Wunderground v.1.15,2013-04-19 00:09:00,
2013-04-19 10:14:00,62.6,48.1,29.72,East,100,6.0,6.0,59,0.00,,,0.00,765,Wunderground v.1.15,2013-04-19 00:14:00,
2013-04-19 10:19:00,62.1,46.7,29.72,West,271,6.0,11.0,57,0.00,,,0.00,172,Wunderground v.1.15,2013-04-19 00:19:00,
2013-04-19 10:24:00,61.8,47.3,29.72,WSW,253,7.0,7.0,59,0.00,,,0.00,214,Wunderground v.1.15,2013-04-19 00:24:00,
2013-04-19 10:34:00,62.5,47.5,29.72,South,182,6.0,6.0,58,0.00,,,0.00,751,Wunderground v.1.15,2013-04-19 00:34:00,
2013-04-19 10:44:00,62.5,47.5,29.72,SW,225,6.0,7.0,58,0.00,,,0.00,645,Wunderground v.1.15,2013-04-19 00:44:00,
2013-04-19 10:49:00,62.8,47.8,29.72,SSW,213,6.0,8.0,58,0.00,,,0.00,698,Wunderground v.1.15,2013-04-19 00:49:00,
2013-04-19 10:54:00,62.9,47.4,29.72,SW,214,7.0,13.0,57,0.00,,,0.00,701,Wunderground v.1.15,2013-04-19 00:54:00,
2013-04-19 10:59:00,62.9,47.4,29.72,SW,221,8.0,13.0,57,0.00,,,0.00,715,Wunderground v.1.15,2013-04-19 00:59:00,
2013-04-19 11:04:00,63.4,46.9,29.72,SW,222,7.0,8.0,55,0.00,,,0.00,721,Wunderground v.1.15,2013-04-19 01:04:00,
2013-04-19 11:14:00,64.4,47.9,29.72,SW,217,5.0,13.0,55,0.00,,,0.00,821,Wunderground v.1.15,2013-04-19 01:14:00,
2013-04-19 11:19:00,64.4,47.9,29.72,SW,214,5.0,13.0,55,0.00,,,0.00,151,Wunderground v.1.15,2013-04-19 01:19:00,
2013-04-19 11:24:00,63.4,46.9,29.71,SSW,207,5.0,6.0,55,0.00,,,0.00,726,Wunderground v.1.15,2013-04-19 01:24:00,
2013-04-19 11:34:00,64.1,48.1,29.71,West,271,5.0,7.0,56,0.00,,,0.00,726,Wunderground v.1.15,2013-04-19 01:34:00,
2013-04-19 11:39:00,64.7,48.2,29.70,SW,220,4.0,7.0,55,0.00,,,0.00,731,Wunderground v.1.15,2013-04-19 01:39:00,
2013-04-19 11:49:00,65.4,47.3,29.70,SW,226,5.0,5.0,52,0.00,,,0.00,751,Wunderground v.1.15,2013-04-19 01:49:00,
2013-04-19 11:54:00,64.7,46.7,29.70,SSW,209,7.0,10.0,52,0.00,,,0.00,749,Wunderground v.1.15,2013-04-19 01:54:00,
2013-04-19 11:59:00,64.4,47.4,29.70,West,263,7.0,10.0,54,0.00,,,0.00,508,Wunderground v.1.15,2013-04-19 01:59:00,
2013-04-19 12:09:00,65.7,46.5,29.69,WSW,242,5.0,11.0,50,0.00,,,0.00,819,Wunderground v.1.15,2013-04-19 02:09:00,
2013-04-19 12:14:00,65.5,46.9,29.69,SSW,198,6.0,6.0,51,0.00,,,0.00,777,Wunderground v.1.15,2013-04-19 02:14:00,
2013-04-19 12:19:00,65.2,47.1,29.69,SW,225,7.0,7.0,52,0.00,,,0.00,805,Wunderground v.1.15,2013-04-19 02:19:00,
2013-04-19 12:24:00,65.9,47.8,29.69,South,186,7.0,7.0,52,0.00,,,0.00,868,Wunderground v.1.15,2013-04-19 02:24:00,
2013-04-19 12:29:00,65.9,47.3,29.69,SW,229,6.0,7.0,51,0.00,,,0.00,606,Wunderground v.1.15,2013-04-19 02:29:00,
2013-04-19 12:39:00,65.2,47.6,29.69,West,276,7.0,8.0,53,0.00,,,0.00,745,Wunderground v.1.15,2013-04-19 02:39:00,
2013-04-19 12:49:00,65.6,47.5,29.68,WNW,296,6.0,6.0,52,0.00,,,0.00,833,Wunderground v.1.15,2013-04-19 02:49:00,
2013-04-19 12:54:00,66.2,47.0,29.69,WSW,244,7.0,7.0,50,0.00,,,0.00,735,Wunderground v.1.15,2013-04-19 02:54:00,
2013-04-19 12:59:00,65.8,46.6,29.69,SSE,157,6.0,7.0,50,0.00,,,0.00,673,Wunderground v.1.15,2013-04-19 02:59:00,
2013-04-19 13:04:00,66.3,48.1,29.69,SW,227,5.0,5.0,52,0.00,,,0.00,879,Wunderground v.1.15,2013-04-19 03:04:00,
2013-04-19 13:14:00,65.2,46.1,29.69,SW,225,5.0,8.0,50,0.00,,,0.00,297,Wunderground v.1.15,2013-04-19 03:14:00,
2013-04-19 13:19:00,64.8,46.8,29.68,SW,236,5.0,8.0,52,0.00,,,0.00,332,Wunderground v.1.15,2013-04-19 03:19:00,
2013-04-19 13:24:00,64.7,46.7,29.68,SW,232,5.0,6.0,52,0.00,,,0.00,338,Wunderground v.1.15,2013-04-19 03:24:00,
2013-04-19 13:34:00,64.7,47.7,29.68,SW,228,5.0,5.0,54,0.00,,,0.00,250,Wunderground v.1.15,2013-04-19 03:34:00,
2013-04-19 13:39:00,65.1,47.5,29.68,SW,220,4.0,5.0,53,0.00,,,0.00,308,Wunderground v.1.15,2013-04-19 03:39:00,
2013-04-19 13:49:00,65.9,46.7,29.67,SE,146,4.0,4.0,50,0.00,,,0.00,388,Wunderground v.1.15,2013-04-19 03:49:00,
2013-04-19 13:54:00,66.7,48.0,29.67,SW,234,3.0,3.0,51,0.00,,,0.00,385,Wunderground v.1.15,2013-04-19 03:54:00,
2013-04-19 13:59:00,66.1,46.9,29.67,SW,233,4.0,10.0,50,0.00,,,0.00,229,Wunderground v.1.15,2013-04-19 03:59:00,
2013-04-19 14:04:00,65.7,47.1,29.67,SW,214,5.0,5.0,51,0.00,,,0.00,722,Wunderground v.1.15,2013-04-19 04:04:00,
2013-04-19 14:09:00,67.3,48.0,29.67,WSW,244,5.0,7.0,50,0.00,,,0.00,517,Wunderground v.1.15,2013-04-19 04:09:00,
2013-04-19 14:14:00,67.5,47.1,29.67,SSW,210,4.0,6.0,48,0.00,,,0.00,445,Wunderground v.1.15,2013-04-19 04:14:00,
2013-04-19 14:19:00,66.2,46.5,29.67,SW,236,6.0,6.0,49,0.00,,,0.00,276,Wunderground v.1.15,2013-04-19 04:19:00,
2013-04-19 14:24:00,65.8,46.6,29.67,SSW,205,6.0,6.0,50,0.00,,,0.00,239,Wunderground v.1.15,2013-04-19 04:24:00,
2013-04-19 14:29:00,65.7,47.1,29.67,West,275,5.0,8.0,51,0.00,,,0.00,193,Wunderground v.1.15,2013-04-19 04:29:00,
2013-04-19 14:34:00,65.8,47.2,29.67,SW,219,4.0,6.0,51,0.00,,,0.00,202,Wunderground v.1.15,2013-04-19 04:34:00,
2013-04-19 14:39:00,65.4,46.3,29.67,SSW,206,4.0,6.0,50,0.00,,,0.00,204,Wunderground v.1.15,2013-04-19 04:39:00,
2013-04-19 14:44:00,65.4,46.8,29.67,WSW,246,5.0,5.0,51,0.00,,,0.00,176,Wunderground v.1.15,2013-04-19 04:44:00,
2013-04-19 14:49:00,65.3,47.2,29.68,SSW,210,4.0,8.0,52,0.00,,,0.00,114,Wunderground v.1.15,2013-04-19 04:49:00,
2013-04-19 14:54:00,64.9,46.3,29.67,SW,219,5.0,6.0,51,0.00,,,0.00,109,Wunderground v.1.15,2013-04-19 04:54:00,
2013-04-19 14:59:00,64.8,46.8,29.67,SSW,211,6.0,6.0,52,0.00,,,0.00,181,Wunderground v.1.15,2013-04-19 04:59:00,
2013-04-19 15:04:00,65.3,46.7,29.67,WSW,245,4.0,7.0,51,0.00,,,0.00,148,Wunderground v.1.15,2013-04-19 05:04:00,
2013-04-19 15:14:00,65.6,45.9,29.67,West,267,5.0,7.0,49,0.00,,,0.00,332,Wunderground v.1.15,2013-04-19 05:14:00,
2013-04-19 15:19:00,66.0,46.3,29.67,WSW,256,6.0,8.0,49,0.00,,,0.00,214,Wunderground v.1.15,2013-04-19 05:19:00,
2013-04-19 15:24:00,66.2,46.5,29.67,WSW,237,6.0,6.0,49,0.00,,,0.00,311,Wunderground v.1.15,2013-04-19 05:24:00,
2013-04-19 15:34:00,65.4,45.2,29.67,SW,221,6.0,8.0,48,0.00,,,0.00,218,Wunderground v.1.15,2013-04-19 05:34:00,
2013-04-19 15:39:00,65.3,46.2,29.67,SW,236,5.0,8.0,50,0.00,,,0.00,192,Wunderground v.1.15,2013-04-19 05:39:00,
2013-04-19 15:49:00,65.9,46.2,29.67,SW,221,5.0,7.0,49,0.00,,,0.00,346,Wunderground v.1.15,2013-04-19 05:49:00,
2013-04-19 15:54:00,66.4,45.5,29.68,SW,217,5.0,9.0,47,0.00,,,0.00,251,Wunderground v.1.15,2013-04-19 05:54:00,
2013-04-19 15:59:00,66.1,45.8,29.68,WSW,249,6.0,9.0,48,0.00,,,0.00,127,Wunderground v.1.15,2013-04-19 05:59:00,
2013-04-19 16:09:00,65.0,45.4,29.67,SSW,200,5.0,7.0,49,0.00,,,0.00,77,Wunderground v.1.15,2013-04-19 06:09:00,
2013-04-19 16:14:00,64.8,45.2,29.68,SSE,158,4.0,14.0,49,0.00,,,0.00,91,Wunderground v.1.15,2013-04-19 06:14:00,
2013-04-19 16:19:00,64.7,45.6,29.68,South,191,4.0,14.0,50,0.00,,,0.00,79,Wunderground v.1.15,2013-04-19 06:19:00,
2013-04-19 16:24:00,64.6,46.6,29.68,WSW,248,5.0,5.0,52,0.00,,,0.00,60,Wunderground v.1.15,2013-04-19 06:24:00,
2013-04-19 16:34:00,64.4,45.9,29.68,WSW,251,4.0,4.0,51,0.00,,,0.00,35,Wunderground v.1.15,2013-04-19 06:34:00,
2013-04-19 16:44:00,64.2,45.7,29.68,SW,226,5.0,5.0,51,0.00,,,0.00,35,Wunderground v.1.15,2013-04-19 06:44:00,
2013-04-19 16:49:00,64.3,45.3,29.68,SW,232,5.0,5.0,50,0.00,,,0.00,44,Wunderground v.1.15,2013-04-19 06:49:00,
2013-04-19 16:54:00,64.3,45.8,29.68,SW,228,5.0,5.0,51,0.00,,,0.00,54,Wunderground v.1.15,2013-04-19 06:54:00,
2013-04-19 16:59:00,64.2,45.2,29.68,SW,219,5.0,5.0,50,0.00,,,0.00,47,Wunderground v.1.15,2013-04-19 06:59:00,
2013-04-19 17:04:00,64.3,44.7,29.69,WSW,246,5.0,8.0,49,0.00,,,0.00,33,Wunderground v.1.15,2013-04-19 07:04:00,
2013-04-19 17:14:00,64.1,45.1,29.69,WSW,257,5.0,5.0,50,0.00,,,0.00,11,Wunderground v.1.15,2013-04-19 07:14:00,
2013-04-19 17:19:00,64.1,45.1,29.69,WSW,238,6.0,6.0,50,0.00,,,0.00,0,Wunderground v.1.15,2013-04-19 07:19:00,
2013-04-19 17:24:00,64.1,45.1,29.69,SSW,198,5.0,5.0,50,0.00,,,0.00,0,Wunderground v.1.15,2013-04-19 07:24:00,
2013-04-19 17:29:00,63.9,44.9,29.69,SSW,202,4.0,5.0,50,0.00,,,0.00,0,Wunderground v.1.15,2013-04-19 07:29:00,
2013-04-19 17:39:00,63.8,44.3,29.70,South,189,8.0,13.0,49,0.00,,,0.00,0,Wunderground v.1.15,2013-04-19 07:39:00,
2013-04-19 17:49:00,63.5,44.0,29.70,SW,217,6.0,7.0,49,0.00,,,0.00,0,Wunderground v.1.15,2013-04-19 07:49:00,
2013-04-19 17:54:00,63.4,44.4,29.70,WSW,248,5.0,5.0,50,0.00,,,0.00,0,Wunderground v.1.15,2013-04-19 07:54:00,
2013-04-19 17:59:00,63.3,44.9,29.70,West,263,4.0,6.0,51,0.00,,,0.00,0,Wunderground v.1.15,2013-04-19 07:59:00,
2013-04-19 18:04:00,63.2,44.8,29.70,WSW,244,4.0,7.0,51,0.00,,,0.00,0,Wunderground v.1.15,2013-04-19 08:04:00,
2013-04-19 18:09:00,63.0,44.1,29.70,SW,222,5.0,8.0,50,0.00,,,0.00,0,Wunderground v.1.15,2013-04-19 08:09:00,
2013-04-19 18:19:00,62.6,43.7,29.70,SW,225,6.0,7.0,50,0.00,,,0.00,0,Wunderground v.1.15,2013-04-19 08:19:00,
2013-04-19 18:24:00,62.6,44.2,29.70,SW,217,6.0,9.0,51,0.00,,,0.00,0,Wunderground v.1.15,2013-04-19 08:24:00,
2013-04-19 18:29:00,62.4,43.5,29.70,SW,236,5.0,9.0,50,0.00,,,0.00,0,Wunderground v.1.15,2013-04-19 08:29:00,
2013-04-19 18:39:00,62.3,43.9,29.71,SW,223,4.0,5.0,51,0.00,,,0.00,0,Wunderground v.1.15,2013-04-19 08:39:00,
2013-04-19 18:44:00,62.2,43.8,29.70,SW,226,4.0,5.0,51,0.00,,,0.00,0,Wunderground v.1.15,2013-04-19 08:44:00,
2013-04-19 18:49:00,62.1,43.7,29.71,WSW,240,4.0,5.0,51,0.00,,,0.00,0,Wunderground v.1.15,2013-04-19 08:49:00,
2013-04-19 18:59:00,62.1,43.7,29.71,West,267,5.0,7.0,51,0.00,,,0.00,0,Wunderground v.1.15,2013-04-19 08:59:00,
2013-04-19 19:04:00,62.1,43.2,29.71,West,259,5.0,7.0,50,0.00,,,0.00,0,Wunderground v.1.15,2013-04-19 09:04:00,
2013-04-19 19:09:00,62.0,43.1,29.71,SSW,200,5.0,8.0,50,0.00,,,0.00,0,Wunderground v.1.15,2013-04-19 09:09:00,
2013-04-19 19:19:00,61.9,43.6,29.71,SSW,199,5.0,5.0,51,0.00,,,0.00,0,Wunderground v.1.15,2013-04-19 09:19:00,
2013-04-19 19:24:00,61.8,43.0,29.71,SW,233,4.0,4.0,50,0.00,,,0.00,0,Wunderground v.1.15,2013-04-19 09:24:00,
2013-04-19 19:29:00,61.7,42.9,29.71,SSW,206,5.0,6.0,50,0.00,,,0.00,0,Wunderground v.1.15,2013-04-19 09:29:00,
2013-04-19 19:39:00,61.4,42.6,29.71,SSW,202,4.0,5.0,50,0.00,,,0.00,0,Wunderground v.1.15,2013-04-19 09:39:00,
2013-04-19 19:44:00,61.4,42.6,29.71,SW,215,4.0,6.0,50,0.00,,,0.00,0,Wunderground v.1.15,2013-04-19 09:44:00,
2013-04-19 19:54:00,61.4,42.1,29.71,WSW,248,5.0,9.0,49,0.00,,,0.00,0,Wunderground v.1.15,2013-04-19 09:54:00,
2013-04-19 19:59:00,61.4,42.1,29.71,SSW,206,5.0,9.0,49,0.00,,,0.00,0,Wunderground v.1.15,2013-04-19 09:59:00,
2013-04-19 20:04:00,61.3,42.0,29.71,SSW,195,5.0,5.0,49,0.00,,,0.00,0,Wunderground v.1.15,2013-04-19 10:04:00,
2013-04-19 20:09:00,61.3,42.0,29.71,WSW,252,4.0,5.0,49,0.00,,,0.00,0,Wunderground v.1.15,2013-04-19 10:09:00,
2013-04-19 20:14:00,61.2,42.4,29.71,WSW,252,5.0,5.0,50,0.00,,,0.00,0,Wunderground v.1.15,2013-04-19 10:14:00,
2013-04-19 20:24:00,61.2,41.9,29.71,SW,236,5.0,9.0,49,0.00,,,0.00,0,Wunderground v.1.15,2013-04-19 10:24:00,